When you browse on this site, cookies collect data to enhance your experience and personalize the content and advertising you see.
Visit our Privacy Policy to learn more. By continuing to use the site, you agree to this use of cookies and data.
  • In Lithuania
  • List of Countries
  • For 7 days
  • Water Temperature
  • Satellite Maps
  • Weather Map
  • Weather Widgets
  • user-avatar
    Login

    Hourly Weather Varenikovskoe

    Today, 12 December, Wednesday

    Time Temperature Precipitation Wind Pressure Humidity
    00:00 +6°C° 0.1 mm 2 mps 744 mmHg 93%
    01:00 +5°C° 0 mm 2 mps 744 mmHg 93%
    02:00 +6°C° 0 mm 1 mps 745 mmHg 93%
    03:00 +5°C° 0 mm 2 mps 745 mmHg 94%
    04:00 +4°C° 0.1 mm 2 mps 745 mmHg 93%
    05:00 +4°C° 0.1 mm 2 mps 745 mmHg 93%
    06:00 +4°C° 0.1 mm 2 mps 745 mmHg 92%
    07:00 +4°C° 0 mm 2 mps 745 mmHg 91%
    08:00 +5°C° 0 mm 2 mps 745 mmHg 90%
    09:00 +6°C° 0 mm 1 mps 745 mmHg 88%
    10:00 +6°C° 0 mm 2 mps 745 mmHg 86%
    11:00 +6°C° 0 mm 2 mps 745 mmHg 84%
    12:00 +7°C° 0 mm 2 mps 744 mmHg 82%
    13:00 +7°C° 0 mm 2 mps 744 mmHg 83%
    14:00 +7°C° 0 mm 2 mps 744 mmHg 83%
    15:00 +7°C° 0 mm 2 mps 744 mmHg 84%
    16:00 +6°C° 0.4 mm 2 mps 744 mmHg 87%
    17:00 +6°C° 0.4 mm 2 mps 744 mmHg 89%
    18:00 +6°C° 0.4 mm 2 mps 744 mmHg 91%
    19:00 +6°C° 0.7 mm 2 mps 744 mmHg 92%
    20:00 +6°C° 0.7 mm 2 mps 744 mmHg 93%
    21:00 +6°C° 0.7 mm 1 mps 744 mmHg 93%
    22:00 +5°C° 0.5 mm 2 mps 745 mmHg 93%
    23:00 +5°C° 0.5 mm 2 mps 745 mmHg 93%

    Tomorrow, 13 December, Thursday

    Time Temperature Precipitation Wind Pressure Humidity
    00:00 +5°C° 0.5 mm 2 mps 745 mmHg 93%
    01:00 +4°C° 0.2 mm 3 mps 745 mmHg 91%
    02:00 +4°C° 0.2 mm 4 mps 746 mmHg 90%
    03:00 +3°C° 0.2 mm 5 mps 746 mmHg 88%
    04:00 +3°C° 0.3 mm 6 mps 747 mmHg 85%
    05:00 +3°C° 0.3 mm 7 mps 747 mmHg 83%
    06:00 +3°C° 0.3 mm 7 mps 748 mmHg 80%
    07:00 +3°C° 0.1 mm 7 mps 748 mmHg 79%
    08:00 +2°C° 0.1 mm 7 mps 749 mmHg 77%
    09:00 +2°C° 0.1 mm 7 mps 749 mmHg 76%
    10:00 +3°C° 0 mm 7 mps 749 mmHg 73%
    11:00 +3°C° 0 mm 7 mps 750 mmHg 71%
    12:00 +3°C° 0 mm 7 mps 750 mmHg 68%
    13:00 +3°C° 0 mm 7 mps 750 mmHg 67%
    14:00 +3°C° 0 mm 6 mps 751 mmHg 65%
    15:00 +3°C° 0 mm 6 mps 751 mmHg 64%
    16:00 +3°C° 0 mm 5 mps 752 mmHg 67%
    17:00 +3°C° 0 mm 4 mps 752 mmHg 70%
    18:00 +3°C° 0 mm 3 mps 753 mmHg 73%
    19:00 +2°C° 0 mm 3 mps 753 mmHg 75%
    20:00 +1°C° 0 mm 4 mps 753 mmHg 77%
    21:00 +1°C° 0 mm 4 mps 754 mmHg 79%
    22:00 0°C° 0 mm 4 mps 754 mmHg 80%
    23:00 +1°C° 0 mm 3 mps 754 mmHg 80%

    Day after tomorrow, 14 December, Friday

    Time Temperature Precipitation Wind Pressure Humidity
    00:00 +1°C° 0 mm 3 mps 754 mmHg 81%
    01:00 +1°C° 0 mm 3 mps 755 mmHg 81%
    02:00 +1°C° 0 mm 3 mps 755 mmHg 81%
    03:00 +2°C° 0 mm 2 mps 755 mmHg 81%
    04:00 +2°C° 0 mm 2 mps 755 mmHg 82%
    05:00 +2°C° 0 mm 2 mps 755 mmHg 83%
    06:00 +2°C° 0 mm 2 mps 755 mmHg 83%
    07:00 +2°C° 0 mm 2 mps 755 mmHg 81%
    08:00 +3°C° 0 mm 2 mps 756 mmHg 79%
    09:00 +3°C° 0 mm 2 mps 756 mmHg 76%
    10:00 +4°C° 0 mm 2 mps 756 mmHg 70%
    11:00 +5°C° 0 mm 2 mps 755 mmHg 63%
    12:00 +7°C° 0 mm 2 mps 755 mmHg 57%
    13:00 +7°C° 0 mm 2 mps 755 mmHg 56%
    14:00 +7°C° 0 mm 2 mps 755 mmHg 54%
    15:00 +8°C° 0 mm 1 mps 755 mmHg 53%
    16:00 +7°C° 0 mm 1 mps 755 mmHg 57%
    17:00 +6°C° 0 mm 1 mps 756 mmHg 62%
    18:00 +5°C° 0 mm 1 mps 756 mmHg 66%
    19:00 +4°C° 0 mm 2 mps 756 mmHg 68%
    20:00 +4°C° 0 mm 2 mps 756 mmHg 70%
    21:00 +3°C° 0 mm 2 mps 756 mmHg 72%
    22:00 +3°C° 0 mm 2 mps 756 mmHg 72%
    23:00 +4°C° 0 mm 1 mps 756 mmHg 73%

    15 December, Saturday

    Time Temperature Precipitation Wind Pressure Humidity
    00:00 +4°C° 0 mm 1 mps 756 mmHg 74%
    01:00 +4°C° 0 mm 1 mps 756 mmHg 74%
    02:00 +3°C° 0 mm 1 mps 757 mmHg 74%
    03:00 +3°C° 0 mm 1 mps 757 mmHg 74%
    04:00 +2°C° 0 mm 2 mps 757 mmHg 74%
    05:00 +2°C° 0 mm 2 mps 757 mmHg 74%
    06:00 +2°C° 0 mm 2 mps 757 mmHg 74%
    07:00 +2°C° 0 mm 2 mps 757 mmHg 72%
    08:00 +2°C° 0 mm 2 mps 758 mmHg 70%
    09:00 +3°C° 0 mm 2 mps 758 mmHg 68%
    10:00 +4°C° 0 mm 2 mps 758 mmHg 63%
    11:00 +6°C° 0 mm 2 mps 757 mmHg 59%
    12:00 +7°C° 0 mm 2 mps 757 mmHg 54%
    13:00 +7°C° 0 mm 2 mps 757 mmHg 54%
    14:00 +7°C° 0 mm 2 mps 757 mmHg 55%
    15:00 +7°C° 0 mm 2 mps 757 mmHg 55%
    16:00 +6°C° 0 mm 2 mps 757 mmHg 60%
    17:00 +6°C° 0 mm 1 mps 758 mmHg 65%
    18:00 +5°C° 0 mm 1 mps 758 mmHg 70%
    19:00 +5°C° 0 mm 1 mps 758 mmHg 71%
    20:00 +5°C° 0 mm 1 mps 758 mmHg 71%
    21:00 +4°C° 0 mm 2 mps 758 mmHg 72%
    22:00 +5°C° 0 mm 1 mps 758 mmHg 73%
    23:00 +4°C° 0 mm 1 mps 758 mmHg 74%

    16 December, Sunday

    Time Temperature Precipitation Wind Pressure Humidity
    00:00 +4°C° 0 mm 1 mps 758 mmHg 75%
    01:00 +4°C° 0 mm 1 mps 758 mmHg 75%
    02:00 +4°C° 0 mm 1 mps 758 mmHg 75%
    03:00 +4°C° 0 mm 1 mps 758 mmHg 76%
    04:00 +3°C° 0 mm 1 mps 758 mmHg 77%
    05:00 +2°C° 0 mm 2 mps 758 mmHg 79%
    06:00 +2°C° 0 mm 2 mps 758 mmHg 80%
    07:00 +2°C° 0 mm 2 mps 758 mmHg 80%
    08:00 +2°C° 0 mm 2 mps 758 mmHg 80%
    09:00 +2°C° 0 mm 2 mps 758 mmHg 80%
    10:00 +2°C° 0 mm 2 mps 758 mmHg 75%
    11:00 +2°C° 0 mm 3 mps 758 mmHg 71%
    12:00 +3°C° 0 mm 3 mps 757 mmHg 67%
    13:00 +3°C° 0 mm 3 mps 757 mmHg 66%
    14:00 +3°C° 0 mm 3 mps 757 mmHg 66%
    15:00 +3°C° 0 mm 4 mps 757 mmHg 66%
    16:00 +1°C° 0 mm 4 mps 757 mmHg 69%
    17:00 0°C° 0 mm 4 mps 757 mmHg 72%
    18:00 -1°C° 0 mm 4 mps 757 mmHg 75%
    19:00 -1°C° 0 mm 4 mps 757 mmHg 76%
    20:00 -2°C° 0 mm 4 mps 757 mmHg 77%
    21:00 -2°C° 0 mm 5 mps 757 mmHg 79%
    22:00 -2°C° 0 mm 5 mps 757 mmHg 80%
    23:00 -2°C° 0 mm 5 mps 757 mmHg 81%

    17 December, Monday

    Time Temperature Precipitation Wind Pressure Humidity
    00:00 -4°C° 0 mm 5 mps 756 mmHg 82%
    01:00 -4°C° 0 mm 5 mps 756 mmHg 83%
    02:00 -4°C° 0 mm 5 mps 756 mmHg 84%
    03:00 -4°C° 0 mm 5 mps 756 mmHg 85%
    04:00 -2°C° 0 mm 5 mps 756 mmHg 85%
    05:00 -2°C° 0 mm 5 mps 756 mmHg 86%
    06:00 -2°C° 0 mm 5 mps 756 mmHg 86%
    07:00 -2°C° 0.1 mm 5 mps 755 mmHg 86%
    08:00 -2°C° 0.1 mm 5 mps 755 mmHg 86%
    09:00 -2°C° 0.1 mm 5 mps 755 mmHg 87%
    10:00 -1°C° 0.1 mm 5 mps 755 mmHg 86%
    11:00 -2°C° 0.1 mm 6 mps 755 mmHg 86%
    12:00 -2°C° 0.1 mm 6 mps 754 mmHg 85%
    13:00 -1°C° 0.1 mm 6 mps 754 mmHg 85%
    14:00 -1°C° 0.1 mm 6 mps 754 mmHg 85%
    15:00 -1°C° 0.1 mm 6 mps 754 mmHg 86%
    16:00 -1°C° 0 mm 6 mps 754 mmHg 86%
    17:00 -1°C° 0 mm 6 mps 754 mmHg 87%
    18:00 -1°C° 0 mm 6 mps 754 mmHg 87%
    19:00 -1°C° 0.1 mm 6 mps 754 mmHg 87%
    20:00 -2°C° 0.1 mm 6 mps 754 mmHg 88%
    21:00 -2°C° 0.1 mm 6 mps 754 mmHg 88%
    22:00 -2°C° 0.1 mm 6 mps 754 mmHg 89%
    23:00 -2°C° 0.1 mm 6 mps 754 mmHg 90%
    Show more